Regional Weather Roundup
Issued by NWS

Home | Current Version | Previous Version | Graphics & Text | Print | Product List | Glossary On
Versions: 1 2 3 4 5 6 7 8 9 10 11 12 13 14 15 16 17 18 19 20 21 22 23 24 25 26 27 28 29 30 31 32 33 34 35 36 37 38 39 40 41 42 43 44 45 46 47 48 49 50
786
ASUS45 KSLC 182210
RWRUT

UTAH REGIONAL WEATHER ROUNDUP
NATIONAL WEATHER SERVICE SALT LAKE CITY UT
400 PM MDT FRI AUG 18 2017

UTZ001>011-023>025-182300-

NORTHERN UTAH

CITY           SKY/WX    TMP DP  RH WIND       PRES   REMARKS
BRIGHAM CITY   SUNNY     88  25  10 SW3       30.12F
HILL AFB       SUNNY     86  36  16 SW8       30.16F
LOGAN          SUNNY     89  32  13 S10G18    30.11F
OGDEN          SUNNY     88  34  14 W7        30.12F
SALT LAKE CITY MOSUNNY   91  39  16 N8G17     30.10F
TOOELE VALLEY  SUNNY     88  43  20 N12       30.11F
WENDOVER       SUNNY     91  36  14 SE12      30.09F
HEBER CITY     SUNNY     88  32  13 SW7       30.18F
WEST JORDAN    SUNNY     87  53  31 NW10G18   30.14F

$$

UTZ011>015-024>027-182300-

CENTRAL/NORTHEAST UTAH

CITY           SKY/WX    TMP DP  RH WIND       PRES   REMARKS
PROVO AIRPORT  SUNNY     93  41  16 S7        30.11F
MOAB/CANYONLAN SUNNY     96  25   8 NW17G23   30.08F HX  90
DELTA          SUNNY     91  30  11 W7        30.13S
PRICE          MOSUNNY   86  31  13 S6        30.19F
ROOSEVELT      SUNNY     90  32  12 S3        30.15F
VERNAL         SUNNY     87  34  15 VRB6      30.15F

$$

UTZ013>016-019>022-027-182300-

SOUTHERN UTAH

CITY           SKY/WX    TMP DP  RH WIND       PRES   REMARKS
BRYCE CANYON   PTSUNNY   80  34  19 S8        30.36F
CEDAR CITY     MOSUNNY   90  37  15 E9        30.19F
MILFORD        MOSUNNY   94  30  10 S10       30.12F
ST GEORGE      CLEAR    100  39  12 VRB6      29.97F HX  95
HANKSVILLE     SUNNY     95  30  10 W5        30.10F
BLANDING       MOSUNNY   87  30  12 SE5       30.28F

$$

REGIONAL REPORTS     COLORADO/ARIZONA

CITY           SKY/WX    TMP DP  RH WIND       PRES   REMARKS
CRAIG, CO      SUNNY     87  25  10 N8        30.22F
GRAND JUNCTION SUNNY     92  33  12 W14G24    30.11F
RIFLE, CO      SUNNY     91  25   9 W21G28    30.15F
MONTROSE, CO   SUNNY     88  34  14 N8        30.19F
CORTEZ, CO     SUNNY     86  28  12 NW8       30.21F
COLORADO CITY    N/A     95  37  13 SW8       30.17F HX  90
PAGE, AZ       SUNNY     98  32  10 NE10      30.07F HX  92
GRAND CANYON   MOSUNNY   81  34  18 SE5       30.30F
KINGMAN, AZ    SUNNY     96  37  12 SW12G21   30.05F HX  91
FLAGSTAFF, AZ  SUNNY     79  37  22 SW12G23   30.33F

$$

REGIONAL REPORTS    NEVADA/IDAHO/WYOMING

CITY           SKY/WX    TMP DP  RH WIND       PRES   REMARKS
LAS VEGAS, NV  MOSUNNY  103  38  10 VRB5      29.93F HX  97
ELY, NY        MOSUNNY   88  28  11 W13       30.22F
ELKO, NV       SUNNY     91  19   7 W8        30.15F
POCATELLO, ID  SUNNY     88  40  18 W17       30.12F
BURLEY, ID     SUNNY     83  39  21 W15       30.10F
FORT BRIDGER,    N/A     82  27  13 W12G24    30.30F
EVANSTON, WY   SUNNY     81  31  16 W17G28    30.30F
ROCK SPRINGS,  SUNNY     83  28  13 W15G26    30.24F
KEMMERER, WY     N/A    N/A N/A N/A W21G32    30.30S

$$




USA.gov is the U.S. government's official web portal to all federal, state and local government web resources and services.